Time,TemperatureF,DewpointF,PressureIn,WindDirection,WindDirectionDegrees,WindSpeedMPH,WindSpeedGustMPH,Humidity,HourlyPrecipIn,Conditions,Clouds,dailyrainin,SolarRadiationWatts/m^2,SoftwareType,DateUTC
2013-05-18 00:00:00,49.1,45.7,30.13,ENE,78,0.0,0.0,88,0.00,,---,0.00,0.00,VWS V14.01,2013-05-18 07:00:00,
2013-05-18 00:05:00,49.1,46.0,30.13,ENE,78,0.0,0.0,89,0.00,,---,0.00,0.00,VWS V14.01,2013-05-18 07:05:00,
2013-05-18 00:10:00,49.1,46.0,30.14,ENE,78,0.0,0.0,89,0.00,,---,0.00,0.00,VWS V14.01,2013-05-18 07:10:00,
2013-05-18 00:15:00,49.1,46.3,30.14,ENE,78,0.0,0.0,90,0.00,,---,0.00,0.00,VWS V14.01,2013-05-18 07:15:00,
2013-05-18 00:20:00,49.2,46.4,30.14,ENE,78,0.0,0.0,90,0.00,,---,0.00,0.00,VWS V14.01,2013-05-18 07:20:00,
2013-05-18 00:25:00,49.2,46.4,30.14,ENE,78,0.0,0.0,90,0.00,,---,0.00,0.00,VWS V14.01,2013-05-18 07:25:00,
2013-05-18 00:30:00,49.3,46.5,30.14,ENE,78,0.0,0.0,90,0.00,,---,0.00,0.00,VWS V14.01,2013-05-18 07:30:00,
2013-05-18 00:35:00,49.4,46.6,30.14,ENE,78,0.0,0.0,90,0.00,,---,0.00,0.00,VWS V14.01,2013-05-18 07:35:00,
2013-05-18 00:40:00,49.5,46.4,30.14,ENE,78,0.0,0.0,89,0.00,,---,0.00,0.00,VWS V14.01,2013-05-18 07:40:00,
2013-05-18 00:45:00,49.5,46.4,30.14,ENE,78,0.0,0.0,89,0.00,,---,0.00,0.00,VWS V14.01,2013-05-18 07:45:00,
2013-05-18 00:50:00,49.5,46.7,30.14,ENE,78,0.0,0.0,90,0.00,,---,0.00,0.00,VWS V14.01,2013-05-18 07:50:00,
2013-05-18 00:55:00,49.6,46.8,30.14,ENE,78,0.0,2.0,90,0.00,,---,0.00,0.00,VWS V14.01,2013-05-18 07:55:00,
2013-05-18 01:00:00,49.6,46.5,30.13,ENE,78,0.0,0.0,89,0.00,,---,0.00,0.00,VWS V14.01,2013-05-18 08:00:00,
2013-05-18 01:05:00,49.7,46.6,30.13,ENE,78,0.0,0.0,89,0.00,,---,0.00,0.00,VWS V14.01,2013-05-18 08:05:00,
2013-05-18 01:10:00,49.8,46.7,30.13,ENE,78,0.0,1.0,89,0.00,,---,0.00,0.00,VWS V14.01,2013-05-18 08:10:00,
2013-05-18 01:15:00,49.9,47.1,30.13,ENE,78,0.0,1.0,90,0.00,,---,0.00,0.00,VWS V14.01,2013-05-18 08:15:00,
2013-05-18 01:20:00,49.9,47.1,30.13,ENE,78,0.0,0.0,90,0.00,,---,0.00,0.00,VWS V14.01,2013-05-18 08:20:00,
2013-05-18 01:25:00,49.9,47.1,30.13,ENE,78,0.0,0.0,90,0.00,,---,0.00,0.00,VWS V14.01,2013-05-18 08:25:00,
2013-05-18 01:30:00,49.9,47.1,30.13,ENE,78,0.0,0.0,90,0.00,,---,0.00,0.00,VWS V14.01,2013-05-18 08:30:00,
2013-05-18 01:35:00,49.9,47.1,30.13,ENE,78,0.0,0.0,90,0.00,,---,0.00,0.00,VWS V14.01,2013-05-18 08:35:00,
2013-05-18 01:40:00,49.9,47.1,30.13,ENE,78,0.0,1.0,90,0.00,,---,0.00,0.00,VWS V14.01,2013-05-18 08:40:00,
2013-05-18 01:45:00,49.9,47.1,30.13,ENE,78,0.0,1.0,90,0.00,,---,0.00,0.00,VWS V14.01,2013-05-18 08:45:00,
2013-05-18 01:50:00,49.9,47.1,30.14,ENE,78,0.0,0.0,90,0.00,,---,0.00,0.00,VWS V14.01,2013-05-18 08:50:00,
2013-05-18 01:55:00,49.9,47.1,30.14,ENE,78,0.0,0.0,90,0.00,,---,0.00,0.00,VWS V14.01,2013-05-18 08:55:00,
2013-05-18 02:00:00,49.9,47.1,30.14,ENE,78,0.0,0.0,90,0.00,,---,0.00,0.00,VWS V14.01,2013-05-18 09:00:00,
2013-05-18 02:05:00,49.8,46.7,30.14,ENE,78,0.0,0.0,89,0.00,,---,0.00,0.00,VWS V14.01,2013-05-18 09:05:00,
2013-05-18 02:10:00,49.9,46.8,30.14,ENE,78,0.0,0.0,89,0.00,,---,0.00,0.00,VWS V14.01,2013-05-18 09:10:00,
2013-05-18 02:15:00,49.9,46.8,30.14,ENE,78,0.0,0.0,89,0.00,,---,0.00,0.00,VWS V14.01,2013-05-18 09:15:00,
2013-05-18 02:20:00,49.9,46.8,30.14,ENE,78,0.0,0.0,89,0.00,,---,0.00,0.00,VWS V14.01,2013-05-18 09:20:00,
2013-05-18 02:25:00,49.9,47.1,30.14,ENE,78,0.0,0.0,90,0.00,,---,0.00,0.00,VWS V14.01,2013-05-18 09:25:00,
2013-05-18 02:30:00,49.9,47.1,30.14,ENE,78,0.0,0.0,90,0.00,,---,0.00,0.00,VWS V14.01,2013-05-18 09:30:00,
2013-05-18 02:35:00,49.8,47.0,30.14,ENE,78,0.0,0.0,90,0.00,,---,0.00,0.00,VWS V14.01,2013-05-18 09:35:00,
2013-05-18 02:40:00,49.7,46.9,30.14,ENE,78,0.0,0.0,90,0.00,,---,0.00,0.00,VWS V14.01,2013-05-18 09:40:00,
2013-05-18 02:45:00,49.7,46.9,30.14,ENE,78,0.0,0.0,90,0.00,,---,0.00,0.00,VWS V14.01,2013-05-18 09:45:00,
2013-05-18 02:50:00,49.7,47.2,30.14,ENE,78,0.0,0.0,91,0.00,,---,0.00,0.00,VWS V14.01,2013-05-18 09:50:00,
2013-05-18 02:55:00,49.8,47.3,30.14,ENE,78,0.0,0.0,91,0.00,,---,0.00,0.00,VWS V14.01,2013-05-18 09:55:00,
2013-05-18 03:00:00,49.8,47.3,30.14,ENE,78,0.0,0.0,91,0.00,,---,0.00,0.00,VWS V14.01,2013-05-18 10:00:00,
2013-05-18 03:05:00,49.8,47.6,30.14,ENE,78,0.0,0.0,92,0.00,,---,0.00,0.00,VWS V14.01,2013-05-18 10:05:00,
2013-05-18 03:10:00,49.8,47.6,30.14,ENE,78,0.0,0.0,92,0.00,,---,0.00,0.00,VWS V14.01,2013-05-18 10:10:00,
2013-05-18 03:15:00,49.7,47.5,30.13,ENE,78,0.0,0.0,92,0.00,,---,0.00,0.00,VWS V14.01,2013-05-18 10:15:00,
2013-05-18 03:20:00,49.7,47.5,30.14,North,0,0.0,0.0,92,0.00,,---,0.00,0.00,VWS V14.01,2013-05-18 10:20:00,
2013-05-18 03:30:00,49.7,47.5,30.14,ENE,68,0.0,1.0,92,0.00,,---,0.00,0.00,VWS V14.01,2013-05-18 10:30:00,
2013-05-18 03:40:00,49.7,47.5,30.14,ENE,68,0.0,0.0,92,0.00,,---,0.00,0.00,VWS V14.01,2013-05-18 10:40:00,
2013-05-18 03:50:00,49.7,47.5,30.14,ENE,68,0.0,1.0,92,0.00,,---,0.00,0.00,VWS V14.01,2013-05-18 10:50:00,
2013-05-18 04:00:00,49.6,47.4,30.14,ENE,68,0.0,0.0,92,0.00,,---,0.00,0.00,VWS V14.01,2013-05-18 11:00:00,
2013-05-18 04:10:00,49.5,47.3,30.14,ENE,68,0.0,0.0,92,0.00,,---,0.00,0.00,VWS V14.01,2013-05-18 11:10:00,
2013-05-18 04:20:00,49.5,47.6,30.14,ENE,68,0.0,1.0,93,0.00,,---,0.00,0.00,VWS V14.01,2013-05-18 11:20:00,
2013-05-18 04:30:00,49.5,47.6,30.14,ENE,68,0.0,1.0,93,0.00,,---,0.00,0.00,VWS V14.01,2013-05-18 11:30:00,
2013-05-18 04:40:00,49.5,47.6,30.13,ENE,68,0.0,1.0,93,0.00,,---,0.00,0.00,VWS V14.01,2013-05-18 11:40:00,
2013-05-18 04:50:00,49.5,47.6,30.13,ENE,68,0.0,1.0,93,0.00,,---,0.00,0.00,VWS V14.01,2013-05-18 11:50:00,
2013-05-18 04:51:00,49.5,47.6,30.13,ENE,68,0.0,1.0,93,0.00,,---,0.00,0.00,VWS V14.01,2013-05-18 11:51:00,
2013-05-18 04:57:00,49.5,47.6,30.13,ENE,68,0.0,1.0,93,0.00,,---,0.00,0.00,VWS V14.01,2013-05-18 11:57:00,
2013-05-18 05:00:00,49.5,47.6,30.13,ENE,78,0.0,0.0,93,0.00,,---,0.00,0.00,VWS V14.01,2013-05-18 12:00:00,
2013-05-18 05:02:00,49.4,47.5,30.14,ENE,78,0.0,0.0,93,0.00,,---,0.00,0.00,VWS V14.01,2013-05-18 12:02:00,
2013-05-18 05:07:00,49.4,47.5,30.14,ENE,78,0.0,0.0,93,0.00,,---,0.00,0.00,VWS V14.01,2013-05-18 12:07:00,
2013-05-18 05:10:00,49.4,47.5,30.14,ENE,78,0.0,0.0,93,0.00,,---,0.00,0.00,VWS V14.01,2013-05-18 12:10:00,
2013-05-18 05:12:00,49.5,47.6,30.14,ENE,78,0.0,2.0,93,0.00,,---,0.00,0.00,VWS V14.01,2013-05-18 12:12:00,
2013-05-18 05:17:00,49.5,47.6,30.13,ENE,78,0.0,0.0,93,0.00,,---,0.00,0.00,VWS V14.01,2013-05-18 12:17:00,
2013-05-18 05:20:00,49.5,47.6,30.13,ENE,78,0.0,3.0,93,0.00,,---,0.00,0.00,VWS V14.01,2013-05-18 12:20:00,
2013-05-18 05:30:00,49.5,47.6,30.13,ENE,68,0.0,1.0,93,0.00,,---,0.00,0.00,VWS V14.01,2013-05-18 12:30:00,
2013-05-18 05:39:00,49.5,47.6,30.13,ENE,68,0.0,1.0,93,0.00,,---,0.00,0.00,VWS V14.01,2013-05-18 12:39:00,
2013-05-18 05:40:00,49.5,47.6,30.13,ENE,68,0.0,1.0,93,0.00,,---,0.00,0.00,VWS V14.01,2013-05-18 12:40:00,
2013-05-18 05:44:00,49.6,47.7,30.13,ENE,78,0.0,0.0,93,0.00,,---,0.00,0.00,VWS V14.01,2013-05-18 12:44:00,
2013-05-18 05:49:00,49.6,47.7,30.13,ENE,78,0.0,0.0,93,0.00,,---,0.00,0.00,VWS V14.01,2013-05-18 12:49:00,
2013-05-18 05:50:00,49.6,47.7,30.13,ENE,78,0.0,0.0,93,0.00,,---,0.00,0.00,VWS V14.01,2013-05-18 12:50:00,
2013-05-18 05:54:00,49.6,47.7,30.13,ENE,78,0.0,1.0,93,0.00,,---,0.00,0.00,VWS V14.01,2013-05-18 12:54:00,
2013-05-18 05:59:00,49.6,47.7,30.13,ENE,78,0.0,0.0,93,0.00,,---,0.00,0.00,VWS V14.01,2013-05-18 12:59:00,
2013-05-18 06:00:00,49.6,47.7,30.13,ENE,78,0.0,1.0,93,0.00,,---,0.00,0.00,VWS V14.01,2013-05-18 13:00:00,
2013-05-18 06:04:00,49.6,47.7,30.14,ENE,78,0.0,0.0,93,0.00,,---,0.00,7.00,VWS V14.01,2013-05-18 13:04:00,
2013-05-18 06:09:00,49.6,47.7,30.14,ENE,78,0.0,0.0,93,0.00,,---,0.00,14.00,VWS V14.01,2013-05-18 13:09:00,
2013-05-18 06:10:00,49.6,47.7,30.14,ENE,78,0.0,0.0,93,0.00,,---,0.00,9.00,VWS V14.01,2013-05-18 13:10:00,
2013-05-18 06:14:00,49.5,47.6,30.14,ENE,78,0.0,0.0,93,0.00,,---,0.00,25.00,VWS V14.01,2013-05-18 13:14:00,
2013-05-18 06:19:00,49.6,47.7,30.15,East,86,0.0,2.0,93,0.00,,---,0.00,25.00,VWS V14.01,2013-05-18 13:19:00,
2013-05-18 06:20:00,49.6,47.7,30.14,ENE,78,0.0,1.0,93,0.00,,---,0.00,25.00,VWS V14.01,2013-05-18 13:20:00,
2013-05-18 06:24:00,49.7,47.8,30.15,WSW,238,2.0,2.0,93,0.00,,---,0.00,30.00,VWS V14.01,2013-05-18 13:24:00,
2013-05-18 06:29:00,49.8,47.6,30.15,WSW,238,1.0,1.0,92,0.00,,---,0.00,37.00,VWS V14.01,2013-05-18 13:29:00,
2013-05-18 06:30:00,49.7,47.5,30.14,WSW,238,0.0,2.0,92,0.00,,---,0.00,33.00,VWS V14.01,2013-05-18 13:30:00,
2013-05-18 06:34:00,49.9,47.7,30.15,SW,217,0.0,3.0,92,0.00,,---,0.00,42.00,VWS V14.01,2013-05-18 13:34:00,
2013-05-18 06:39:00,50.0,47.8,30.14,SW,217,0.0,2.0,92,0.00,,---,0.00,35.00,VWS V14.01,2013-05-18 13:39:00,
2013-05-18 06:40:00,49.9,47.7,30.14,SW,217,0.0,3.0,92,0.00,,---,0.00,40.00,VWS V14.01,2013-05-18 13:40:00,
2013-05-18 06:44:00,50.0,47.8,30.15,SW,217,0.0,3.0,92,0.00,,---,0.00,21.00,VWS V14.01,2013-05-18 13:44:00,
2013-05-18 06:49:00,50.1,47.9,30.15,SSW,205,1.0,4.0,92,0.00,,---,0.00,9.00,VWS V14.01,2013-05-18 13:49:00,
2013-05-18 06:50:00,50.1,47.9,30.15,SW,217,0.0,3.0,92,0.00,,---,0.00,14.00,VWS V14.01,2013-05-18 13:50:00,
2013-05-18 06:54:00,50.1,47.9,30.15,SSW,205,0.0,4.0,92,0.00,,---,0.00,7.00,VWS V14.01,2013-05-18 13:54:00,
2013-05-18 06:59:00,50.0,47.8,30.15,South,175,0.0,3.0,92,0.01,,---,0.01,12.00,VWS V14.01,2013-05-18 13:59:00,
2013-05-18 07:00:00,50.1,47.9,30.15,SSW,205,2.0,4.0,92,0.01,,---,0.01,9.00,VWS V14.01,2013-05-18 14:00:00,
2013-05-18 07:04:00,50.0,47.8,30.15,South,175,0.0,3.0,92,0.01,,---,0.01,16.00,VWS V14.01,2013-05-18 14:04:00,
2013-05-18 07:09:00,50.0,47.8,30.15,South,175,1.0,2.0,92,0.01,,---,0.01,25.00,VWS V14.01,2013-05-18 14:09:00,
2013-05-18 07:10:00,50.0,47.8,30.15,South,175,0.0,3.0,92,0.01,,---,0.01,19.00,VWS V14.01,2013-05-18 14:10:00,
2013-05-18 07:14:00,49.9,48.0,30.15,South,175,0.0,2.0,93,0.01,,---,0.01,49.00,VWS V14.01,2013-05-18 14:14:00,
2013-05-18 07:19:00,49.9,48.0,30.15,South,175,0.0,0.0,93,0.01,,---,0.01,74.00,VWS V14.01,2013-05-18 14:19:00,
2013-05-18 07:20:00,49.9,48.0,30.15,South,175,0.0,2.0,93,0.01,,---,0.01,62.00,VWS V14.01,2013-05-18 14:20:00,
2013-05-18 07:24:00,50.0,48.3,30.15,South,175,0.0,0.0,94,0.01,,---,0.01,70.00,VWS V14.01,2013-05-18 14:24:00,
2013-05-18 07:29:00,50.1,48.4,30.15,South,175,0.0,0.0,94,0.01,,---,0.01,62.00,VWS V14.01,2013-05-18 14:29:00,
2013-05-18 07:30:00,50.0,48.3,30.15,South,175,0.0,0.0,94,0.01,,---,0.01,63.00,VWS V14.01,2013-05-18 14:30:00,
2013-05-18 07:34:00,50.1,48.2,30.15,South,175,0.0,0.0,93,0.01,,---,0.01,62.00,VWS V14.01,2013-05-18 14:34:00,
2013-05-18 07:39:00,50.1,48.4,30.15,South,175,0.0,0.0,94,0.01,,---,0.01,83.00,VWS V14.01,2013-05-18 14:39:00,
2013-05-18 07:40:00,50.1,48.4,30.15,South,175,0.0,0.0,94,0.01,,---,0.01,69.00,VWS V14.01,2013-05-18 14:40:00,
2013-05-18 07:44:00,50.3,48.6,30.15,South,175,0.0,2.0,94,0.01,,---,0.01,90.00,VWS V14.01,2013-05-18 14:44:00,
2013-05-18 07:49:00,50.4,48.7,30.16,South,175,2.0,2.0,94,0.01,,---,0.01,79.00,VWS V14.01,2013-05-18 14:49:00,
2013-05-18 07:50:00,50.4,48.7,30.16,South,175,0.0,2.0,94,0.01,,---,0.01,83.00,VWS V14.01,2013-05-18 14:50:00,
2013-05-18 07:54:00,50.4,48.7,30.16,South,175,0.0,3.0,94,0.01,,---,0.01,84.00,VWS V14.01,2013-05-18 14:54:00,
2013-05-18 07:59:00,50.4,48.7,30.16,South,175,2.0,3.0,94,0.00,,---,0.01,81.00,VWS V14.01,2013-05-18 14:59:00,
2013-05-18 08:00:00,50.4,48.5,30.16,South,175,0.0,4.0,93,0.01,,---,0.01,81.00,VWS V14.01,2013-05-18 15:00:00,
2013-05-18 08:04:00,50.5,48.6,30.16,South,175,0.0,4.0,93,0.00,,---,0.01,81.00,VWS V14.01,2013-05-18 15:04:00,
2013-05-18 08:09:00,50.5,48.6,30.16,South,175,4.0,4.0,93,0.00,,---,0.01,95.00,VWS V14.01,2013-05-18 15:09:00,
2013-05-18 08:10:00,50.6,48.7,30.16,South,175,4.0,5.0,93,0.00,,---,0.01,83.00,VWS V14.01,2013-05-18 15:10:00,
2013-05-18 08:14:00,50.6,48.7,30.16,South,171,0.0,4.0,93,0.00,,---,0.01,116.00,VWS V14.01,2013-05-18 15:14:00,
2013-05-18 08:19:00,50.7,48.8,30.16,South,171,0.0,3.0,93,0.00,,---,0.01,114.00,VWS V14.01,2013-05-18 15:19:00,
2013-05-18 08:20:00,50.7,48.8,30.16,South,171,0.0,4.0,93,0.00,,---,0.01,118.00,VWS V14.01,2013-05-18 15:20:00,
2013-05-18 08:24:00,50.8,48.8,30.16,South,171,1.0,5.0,93,0.00,,---,0.01,98.00,VWS V14.01,2013-05-18 15:24:00,
2013-05-18 08:29:00,50.8,48.8,30.16,South,171,3.0,4.0,93,0.00,,---,0.01,98.00,VWS V14.01,2013-05-18 15:29:00,
2013-05-18 08:30:00,50.8,48.6,30.16,South,171,0.0,5.0,92,0.00,,---,0.01,93.00,VWS V14.01,2013-05-18 15:30:00,
2013-05-18 08:34:00,50.9,49.0,30.16,South,171,2.0,4.0,93,0.00,,---,0.01,107.00,VWS V14.01,2013-05-18 15:34:00,
2013-05-18 08:39:00,51.0,49.0,30.16,South,171,0.0,1.0,93,0.00,,---,0.01,91.00,VWS V14.01,2013-05-18 15:39:00,
2013-05-18 08:40:00,51.0,49.0,30.16,South,171,0.0,4.0,93,0.00,,---,0.01,97.00,VWS V14.01,2013-05-18 15:40:00,
2013-05-18 08:44:00,51.0,48.8,30.16,South,171,0.0,3.0,92,0.00,,---,0.01,111.00,VWS V14.01,2013-05-18 15:44:00,
2013-05-18 08:49:00,51.1,49.2,30.16,South,171,2.0,3.0,93,0.00,,---,0.01,123.00,VWS V14.01,2013-05-18 15:49:00,
2013-05-18 08:50:00,51.1,49.2,30.16,South,171,0.0,3.0,93,0.00,,---,0.01,118.00,VWS V14.01,2013-05-18 15:50:00,
2013-05-18 08:54:00,51.2,49.2,30.17,South,171,2.0,3.0,93,0.00,,---,0.01,132.00,VWS V14.01,2013-05-18 15:54:00,
2013-05-18 08:59:00,51.3,49.3,30.17,South,173,2.0,2.0,93,0.00,,---,0.01,120.00,VWS V14.01,2013-05-18 15:59:00,
2013-05-18 09:00:00,51.2,49.0,30.17,South,171,1.0,4.0,92,0.00,,---,0.01,130.00,VWS V14.01,2013-05-18 16:00:00,
2013-05-18 09:04:00,51.4,49.2,30.16,SSE,153,1.0,5.0,92,0.00,,---,0.01,132.00,VWS V14.01,2013-05-18 16:04:00,
2013-05-18 09:09:00,51.4,49.2,30.17,South,176,1.0,4.0,92,0.00,,---,0.01,148.00,VWS V14.01,2013-05-18 16:09:00,
2013-05-18 09:10:00,51.4,49.2,30.17,South,176,0.0,5.0,92,0.00,,---,0.01,144.00,VWS V14.01,2013-05-18 16:10:00,
2013-05-18 09:14:00,51.6,49.7,30.17,South,176,2.0,4.0,93,0.00,,---,0.01,195.00,VWS V14.01,2013-05-18 16:14:00,
2013-05-18 09:19:00,51.8,49.5,30.17,South,176,1.0,3.0,92,0.00,,---,0.01,206.00,VWS V14.01,2013-05-18 16:19:00,
2013-05-18 09:20:00,51.7,49.8,30.17,South,176,0.0,4.0,93,0.00,,---,0.01,209.00,VWS V14.01,2013-05-18 16:20:00,
2013-05-18 09:24:00,51.9,49.7,30.17,South,180,4.0,4.0,92,0.00,,---,0.01,178.00,VWS V14.01,2013-05-18 16:24:00,
2013-05-18 09:29:00,52.0,49.8,30.16,SSE,150,4.0,4.0,92,0.00,,---,0.01,197.00,VWS V14.01,2013-05-18 16:29:00,
2013-05-18 09:30:00,52.0,49.8,30.16,South,181,0.0,4.0,92,0.00,,---,0.01,183.00,VWS V14.01,2013-05-18 16:30:00,
2013-05-18 09:34:00,52.0,49.5,30.17,South,175,3.0,6.0,91,0.00,,---,0.01,206.00,VWS V14.01,2013-05-18 16:34:00,
2013-05-18 09:39:00,52.2,49.7,30.17,SSE,158,2.0,3.0,91,0.00,,---,0.01,195.00,VWS V14.01,2013-05-18 16:39:00,
2013-05-18 09:40:00,52.1,49.6,30.16,SE,127,0.0,6.0,91,0.00,,---,0.01,206.00,VWS V14.01,2013-05-18 16:40:00,
2013-05-18 09:44:00,52.2,49.7,30.16,SE,144,0.0,5.0,91,0.00,,---,0.01,214.00,VWS V14.01,2013-05-18 16:44:00,
2013-05-18 09:49:00,52.4,49.8,30.17,South,180,2.0,6.0,91,0.00,,---,0.01,236.00,VWS V14.01,2013-05-18 16:49:00,
2013-05-18 09:50:00,52.3,49.8,30.17,SE,131,6.0,6.0,91,0.00,,---,0.01,234.00,VWS V14.01,2013-05-18 16:50:00,
2013-05-18 09:54:00,52.5,50.0,30.16,South,170,0.0,6.0,91,0.00,,---,0.01,239.00,VWS V14.01,2013-05-18 16:54:00,
2013-05-18 09:59:00,52.7,50.2,30.17,SSW,198,5.0,5.0,91,0.00,,---,0.01,272.00,VWS V14.01,2013-05-18 16:59:00,
2013-05-18 10:00:00,52.6,50.0,30.17,SSW,201,2.0,6.0,91,0.00,,---,0.01,253.00,VWS V14.01,2013-05-18 17:00:00,
2013-05-18 10:04:00,53.0,50.2,30.17,SSE,157,6.0,6.0,90,0.00,,---,0.01,276.00,VWS V14.01,2013-05-18 17:04:00,
2013-05-18 10:09:00,53.1,50.2,30.17,SSE,153,2.0,2.0,90,0.00,,---,0.01,267.00,VWS V14.01,2013-05-18 17:09:00,
2013-05-18 10:10:00,53.0,49.8,30.17,SE,136,2.0,6.0,89,0.00,,---,0.01,271.00,VWS V14.01,2013-05-18 17:10:00,
2013-05-18 10:14:00,53.2,50.3,30.17,SSE,161,0.0,6.0,90,0.00,,---,0.01,272.00,VWS V14.01,2013-05-18 17:14:00,
2013-05-18 10:19:00,53.4,50.2,30.17,SE,130,0.0,5.0,89,0.00,,---,0.01,258.00,VWS V14.01,2013-05-18 17:19:00,
2013-05-18 10:20:00,53.4,50.5,30.17,SE,142,3.0,6.0,90,0.00,,---,0.01,276.00,VWS V14.01,2013-05-18 17:20:00,
2013-05-18 10:24:00,53.6,50.1,30.17,SSW,203,5.0,7.0,88,0.00,,---,0.01,239.00,VWS V14.01,2013-05-18 17:24:00,
2013-05-18 10:29:00,53.6,50.1,30.17,South,180,3.0,5.0,88,0.00,,---,0.01,325.00,VWS V14.01,2013-05-18 17:29:00,
2013-05-18 10:30:00,53.6,50.1,30.17,South,183,5.0,7.0,88,0.00,,---,0.01,257.00,VWS V14.01,2013-05-18 17:30:00,
2013-05-18 10:34:00,53.8,50.3,30.17,SSE,163,3.0,8.0,88,0.00,,---,0.01,357.00,VWS V14.01,2013-05-18 17:34:00,
2013-05-18 10:39:00,53.9,50.1,30.17,SSE,162,2.0,6.0,87,0.00,,---,0.01,454.00,VWS V14.01,2013-05-18 17:39:00,
2013-05-18 10:40:00,53.8,50.0,30.17,SE,126,1.0,8.0,87,0.00,,---,0.01,392.00,VWS V14.01,2013-05-18 17:40:00,
2013-05-18 10:44:00,54.3,50.2,30.17,SSE,157,3.0,6.0,86,0.00,,---,0.01,410.00,VWS V14.01,2013-05-18 17:44:00,
2013-05-18 10:49:00,54.7,51.2,30.17,ESE,123,4.0,7.0,88,0.00,,---,0.01,441.00,VWS V14.01,2013-05-18 17:49:00,
2013-05-18 10:50:00,54.4,50.0,30.17,SSE,164,7.0,7.0,85,0.00,,---,0.01,492.00,VWS V14.01,2013-05-18 17:50:00,
2013-05-18 10:54:00,54.9,50.5,30.17,SE,143,3.0,7.0,85,0.00,,---,0.01,279.00,VWS V14.01,2013-05-18 17:54:00,
2013-05-18 10:59:00,55.0,50.6,30.17,SSE,167,4.0,6.0,85,0.00,,---,0.01,373.00,VWS V14.01,2013-05-18 17:59:00,
2013-05-18 11:00:00,54.9,50.5,30.17,SE,139,6.0,7.0,85,0.00,,---,0.01,374.00,VWS V14.01,2013-05-18 18:00:00,
2013-05-18 11:04:00,55.2,50.8,30.17,SSE,153,2.0,6.0,85,0.00,,---,0.01,315.00,VWS V14.01,2013-05-18 18:04:00,
2013-05-18 11:09:00,55.2,50.1,30.17,South,182,1.0,6.0,83,0.00,,---,0.01,357.00,VWS V14.01,2013-05-18 18:09:00,
2013-05-18 11:10:00,55.2,50.5,30.17,SE,129,4.0,6.0,84,0.00,,---,0.01,332.00,VWS V14.01,2013-05-18 18:10:00,
2013-05-18 11:14:00,55.2,49.8,30.17,SE,128,6.0,9.0,82,0.00,,---,0.01,373.00,VWS V14.01,2013-05-18 18:14:00,
2013-05-18 11:19:00,55.4,50.3,30.17,SSE,166,0.0,7.0,83,0.00,,---,0.01,429.00,VWS V14.01,2013-05-18 18:19:00,
2013-05-18 11:20:00,55.2,49.8,30.17,South,180,7.0,9.0,82,0.00,,---,0.01,399.00,VWS V14.01,2013-05-18 18:20:00,
2013-05-18 11:24:00,55.7,49.6,30.17,SSE,147,5.0,9.0,80,0.00,,---,0.01,397.00,VWS V14.01,2013-05-18 18:24:00,
2013-05-18 11:29:00,55.8,50.1,30.17,SE,144,4.0,6.0,81,0.00,,---,0.01,350.00,VWS V14.01,2013-05-18 18:29:00,
2013-05-18 11:30:00,55.7,50.0,30.17,ESE,112,4.0,9.0,81,0.00,,---,0.01,352.00,VWS V14.01,2013-05-18 18:30:00,
2013-05-18 11:34:00,55.8,49.4,30.17,SSE,153,8.0,14.0,79,0.00,,---,0.01,401.00,VWS V14.01,2013-05-18 18:34:00,
2013-05-18 11:39:00,56.0,49.2,30.17,SSE,148,11.0,11.0,78,0.00,,---,0.01,394.00,VWS V14.01,2013-05-18 18:39:00,
2013-05-18 11:40:00,55.9,49.5,30.17,SSE,157,3.0,14.0,79,0.00,,---,0.01,373.00,VWS V14.01,2013-05-18 18:40:00,
2013-05-18 11:44:00,56.3,49.9,30.17,SSE,154,4.0,11.0,79,0.00,,---,0.01,362.00,VWS V14.01,2013-05-18 18:44:00,
2013-05-18 11:49:00,56.4,49.3,30.17,SSE,160,1.0,12.0,77,0.00,,---,0.01,306.00,VWS V14.01,2013-05-18 18:49:00,
2013-05-18 11:50:00,56.4,50.0,30.17,SE,128,2.0,11.0,79,0.00,,---,0.01,364.00,VWS V14.01,2013-05-18 18:50:00,
2013-05-18 11:54:00,56.3,48.8,30.18,South,170,6.0,12.0,76,0.00,,---,0.01,200.00,VWS V14.01,2013-05-18 18:54:00,
2013-05-18 11:59:00,56.1,49.0,30.18,South,171,5.0,9.0,77,0.00,,---,0.01,229.00,VWS V14.01,2013-05-18 18:59:00,
2013-05-18 12:00:00,56.1,49.0,30.18,South,188,3.0,12.0,77,0.00,,---,0.01,206.00,VWS V14.01,2013-05-18 19:00:00,
2013-05-18 12:04:00,56.0,49.6,30.18,SSE,158,2.0,11.0,79,0.00,,---,0.01,251.00,VWS V14.01,2013-05-18 19:04:00,
2013-05-18 12:09:00,56.1,49.3,30.18,SSE,163,5.0,5.0,78,0.00,,---,0.01,265.00,VWS V14.01,2013-05-18 19:09:00,
2013-05-18 12:10:00,56.1,49.7,30.18,South,186,5.0,11.0,79,0.00,,---,0.01,243.00,VWS V14.01,2013-05-18 19:10:00,
2013-05-18 12:14:00,56.2,49.8,30.18,East,101,5.0,9.0,79,0.00,,---,0.01,264.00,VWS V14.01,2013-05-18 19:14:00,
2013-05-18 12:19:00,56.2,49.4,30.18,SSW,195,6.0,9.0,78,0.00,,---,0.01,167.00,VWS V14.01,2013-05-18 19:19:00,
2013-05-18 12:20:00,56.2,49.4,30.18,SSE,149,0.0,9.0,78,0.00,,---,0.01,216.00,VWS V14.01,2013-05-18 19:20:00,
2013-05-18 12:24:00,56.1,49.3,30.18,South,176,3.0,10.0,78,0.00,,---,0.01,135.00,VWS V14.01,2013-05-18 19:24:00,
2013-05-18 12:29:00,56.0,49.6,30.18,South,185,3.0,6.0,79,0.00,,---,0.01,188.00,VWS V14.01,2013-05-18 19:29:00,
2013-05-18 12:30:00,56.0,49.2,30.18,SSW,202,6.0,10.0,78,0.00,,---,0.01,169.00,VWS V14.01,2013-05-18 19:30:00,
2013-05-18 12:34:00,56.0,48.5,30.18,South,190,5.0,10.0,76,0.00,,---,0.01,227.00,VWS V14.01,2013-05-18 19:34:00,
2013-05-18 12:39:00,56.0,48.9,30.19,SSW,206,6.0,11.0,77,0.00,,---,0.01,243.00,VWS V14.01,2013-05-18 19:39:00,
2013-05-18 12:40:00,56.0,49.2,30.19,SW,215,3.0,10.0,78,0.00,,---,0.01,239.00,VWS V14.01,2013-05-18 19:40:00,
2013-05-18 12:44:00,55.8,49.4,30.19,WSW,238,3.0,11.0,79,0.01,,---,0.02,290.00,VWS V14.01,2013-05-18 19:44:00,
2013-05-18 12:49:00,55.5,49.8,30.19,South,189,4.0,6.0,81,0.01,,---,0.02,336.00,VWS V14.01,2013-05-18 19:49:00,
2013-05-18 12:50:00,55.7,49.6,30.19,South,181,2.0,11.0,80,0.01,,---,0.02,322.00,VWS V14.01,2013-05-18 19:50:00,
2013-05-18 12:54:00,55.2,49.5,30.19,SSE,153,5.0,12.0,81,0.01,,---,0.02,330.00,VWS V14.01,2013-05-18 19:54:00,
2013-05-18 12:59:00,55.0,49.6,30.19,South,184,4.0,10.0,82,0.01,,---,0.02,325.00,VWS V14.01,2013-05-18 19:59:00,
2013-05-18 13:00:00,55.1,49.7,30.19,South,173,8.0,12.0,82,0.01,,---,0.02,327.00,VWS V14.01,2013-05-18 20:00:00,
2013-05-18 13:04:00,54.9,50.2,30.19,SSW,194,3.0,10.0,84,0.02,,---,0.03,334.00,VWS V14.01,2013-05-18 20:04:00,
2013-05-18 13:09:00,55.0,50.9,30.20,SSE,151,3.0,5.0,86,0.02,,---,0.03,431.00,VWS V14.01,2013-05-18 20:09:00,
2013-05-18 13:10:00,54.9,50.5,30.19,SE,133,4.0,10.0,85,0.02,,---,0.03,403.00,VWS V14.01,2013-05-18 20:10:00,
2013-05-18 13:14:00,55.1,51.0,30.19,SW,216,6.0,10.0,86,0.02,,---,0.03,429.00,VWS V14.01,2013-05-18 20:14:00,
2013-05-18 13:19:00,55.2,51.1,30.20,SSE,164,7.0,13.0,86,0.02,,---,0.03,406.00,VWS V14.01,2013-05-18 20:19:00,
2013-05-18 13:20:00,55.1,51.0,30.19,SSW,201,11.0,11.0,86,0.02,,---,0.03,429.00,VWS V14.01,2013-05-18 20:20:00,
2013-05-18 13:24:00,55.2,50.8,30.20,South,180,3.0,13.0,85,0.02,,---,0.03,381.00,VWS V14.01,2013-05-18 20:24:00,
2013-05-18 13:29:00,55.2,50.5,30.20,SSE,155,5.0,13.0,84,0.02,,---,0.03,329.00,VWS V14.01,2013-05-18 20:29:00,
2013-05-18 13:30:00,55.2,50.8,30.20,South,178,0.0,13.0,85,0.02,,---,0.03,345.00,VWS V14.01,2013-05-18 20:30:00,
2013-05-18 13:34:00,54.9,50.2,30.20,South,174,6.0,13.0,84,0.02,,---,0.03,297.00,VWS V14.01,2013-05-18 20:34:00,
2013-05-18 13:39:00,54.8,51.6,30.20,SE,133,6.0,9.0,89,0.02,,---,0.03,283.00,VWS V14.01,2013-05-18 20:39:00,
2013-05-18 13:40:00,54.8,50.4,30.20,SSE,168,6.0,13.0,85,0.02,,---,0.03,295.00,VWS V14.01,2013-05-18 20:40:00,
2013-05-18 13:44:00,54.5,50.1,30.21,South,178,10.0,14.0,85,0.02,,---,0.03,241.00,VWS V14.01,2013-05-18 20:44:00,
2013-05-18 13:49:00,54.2,50.4,30.21,SW,215,7.0,10.0,87,0.01,,---,0.03,185.00,VWS V14.01,2013-05-18 20:49:00,
2013-05-18 13:50:00,54.3,50.2,30.21,SW,223,7.0,14.0,86,0.02,,---,0.03,218.00,VWS V14.01,2013-05-18 20:50:00,
2013-05-18 13:54:00,54.0,50.8,30.21,South,178,0.0,10.0,89,0.02,,---,0.04,167.00,VWS V14.01,2013-05-18 20:54:00,
2013-05-18 13:59:00,53.9,51.0,30.21,SSE,167,3.0,4.0,90,0.02,,---,0.04,158.00,VWS V14.01,2013-05-18 20:59:00,
2013-05-18 14:00:00,53.9,51.0,30.21,SSW,194,2.0,10.0,90,0.02,,---,0.04,162.00,VWS V14.01,2013-05-18 21:00:00,
2013-05-18 14:04:00,53.9,51.0,30.20,SE,134,5.0,5.0,90,0.02,,---,0.04,169.00,VWS V14.01,2013-05-18 21:04:00,
2013-05-18 14:09:00,53.9,51.0,30.21,SSE,156,0.0,5.0,90,0.01,,---,0.04,169.00,VWS V14.01,2013-05-18 21:09:00,
2013-05-18 14:10:00,53.9,51.0,30.21,SSE,155,1.0,5.0,90,0.02,,---,0.04,163.00,VWS V14.01,2013-05-18 21:10:00,
2013-05-18 14:14:00,54.0,51.1,30.21,South,171,0.0,5.0,90,0.01,,---,0.04,153.00,VWS V14.01,2013-05-18 21:14:00,
2013-05-18 14:19:00,54.1,51.5,30.21,South,171,2.0,3.0,91,0.01,,---,0.04,123.00,VWS V14.01,2013-05-18 21:19:00,
2013-05-18 14:20:00,54.0,51.1,30.21,South,171,2.0,5.0,90,0.01,,---,0.04,132.00,VWS V14.01,2013-05-18 21:20:00,
2013-05-18 14:24:00,54.1,51.2,30.21,SE,134,0.0,3.0,90,0.01,,---,0.04,120.00,VWS V14.01,2013-05-18 21:24:00,
2013-05-18 14:29:00,54.2,51.3,30.21,South,182,3.0,4.0,90,0.01,,---,0.04,121.00,VWS V14.01,2013-05-18 21:29:00,
2013-05-18 14:30:00,54.2,51.3,30.21,South,182,0.0,4.0,90,0.01,,---,0.04,116.00,VWS V14.01,2013-05-18 21:30:00,
2013-05-18 14:34:00,54.2,51.3,30.21,SSE,162,0.0,4.0,90,0.01,,---,0.04,118.00,VWS V14.01,2013-05-18 21:34:00,
2013-05-18 14:39:00,54.2,51.3,30.21,SSE,162,1.0,2.0,90,0.01,,---,0.04,104.00,VWS V14.01,2013-05-18 21:39:00,
2013-05-18 14:40:00,54.2,51.3,30.21,SSE,162,2.0,4.0,90,0.01,,---,0.04,102.00,VWS V14.01,2013-05-18 21:40:00,
2013-05-18 14:44:00,54.3,51.4,30.21,SSE,159,1.0,4.0,90,0.01,,---,0.04,107.00,VWS V14.01,2013-05-18 21:44:00,
2013-05-18 14:49:00,54.4,51.5,30.20,SSE,159,0.0,0.0,90,0.01,,---,0.04,128.00,VWS V14.01,2013-05-18 21:49:00,
2013-05-18 14:50:00,54.3,51.1,30.21,SSE,159,0.0,4.0,89,0.01,,---,0.04,123.00,VWS V14.01,2013-05-18 21:50:00,
2013-05-18 14:54:00,54.4,51.2,30.20,South,178,0.0,5.0,89,0.01,,---,0.04,120.00,VWS V14.01,2013-05-18 21:54:00,
2013-05-18 14:59:00,54.5,51.3,30.21,South,178,2.0,2.0,89,0.00,,---,0.04,125.00,VWS V14.01,2013-05-18 21:59:00,
2013-05-18 15:00:00,54.5,51.6,30.21,South,178,0.0,5.0,90,0.01,,---,0.04,121.00,VWS V14.01,2013-05-18 22:00:00,
2013-05-18 15:04:00,54.6,51.4,30.21,SE,140,0.0,4.0,89,0.00,,---,0.04,127.00,VWS V14.01,2013-05-18 22:04:00,
2013-05-18 15:09:00,54.8,51.6,30.21,SSE,165,3.0,5.0,89,0.00,,---,0.04,134.00,VWS V14.01,2013-05-18 22:09:00,
2013-05-18 15:10:00,54.8,51.9,30.21,SSE,150,0.0,4.0,90,0.00,,---,0.04,130.00,VWS V14.01,2013-05-18 22:10:00,
2013-05-18 15:14:00,54.9,51.7,30.21,SE,132,3.0,5.0,89,0.00,,---,0.04,111.00,VWS V14.01,2013-05-18 22:14:00,
2013-05-18 15:19:00,54.9,51.7,30.21,East,94,1.0,4.0,89,0.00,,---,0.04,149.00,VWS V14.01,2013-05-18 22:19:00,
2013-05-18 15:20:00,54.9,51.7,30.21,SE,141,4.0,5.0,89,0.00,,---,0.04,130.00,VWS V14.01,2013-05-18 22:20:00,
2013-05-18 15:24:00,55.1,51.9,30.21,SE,128,0.0,4.0,89,0.00,,---,0.04,156.00,VWS V14.01,2013-05-18 22:24:00,
2013-05-18 15:29:00,55.1,51.9,30.21,ESE,115,4.0,5.0,89,0.00,,---,0.04,141.00,VWS V14.01,2013-05-18 22:29:00,
2013-05-18 15:30:00,55.1,51.6,30.21,SSE,148,1.0,6.0,88,0.00,,---,0.04,135.00,VWS V14.01,2013-05-18 22:30:00,
2013-05-18 15:34:00,55.2,51.7,30.21,South,175,0.0,5.0,88,0.00,,---,0.04,158.00,VWS V14.01,2013-05-18 22:34:00,
2013-05-18 15:38:00,55.2,52.0,30.21,SE,129,4.0,4.0,89,0.00,,---,0.04,172.00,VWS V14.01,2013-05-18 22:38:00,
2013-05-18 15:40:00,55.2,52.0,30.21,SSE,167,0.0,5.0,89,0.00,,---,0.04,162.00,VWS V14.01,2013-05-18 22:40:00,
2013-05-18 15:43:00,55.4,52.5,30.21,SE,130,2.0,4.0,90,0.00,,---,0.04,186.00,VWS V14.01,2013-05-18 22:43:00,
2013-05-18 15:48:00,55.4,52.2,30.21,SE,125,3.0,4.0,89,0.00,,---,0.04,188.00,VWS V14.01,2013-05-18 22:48:00,
2013-05-18 15:50:00,55.4,52.2,30.21,ESE,106,2.0,4.0,89,0.00,,---,0.04,183.00,VWS V14.01,2013-05-18 22:50:00,
2013-05-18 15:54:00,55.6,52.4,30.22,SE,124,3.0,4.0,89,0.00,,---,0.04,181.00,VWS V14.01,2013-05-18 22:54:00,
2013-05-18 15:58:00,55.6,52.4,30.22,ESE,117,3.0,6.0,89,0.00,,---,0.04,142.00,VWS V14.01,2013-05-18 22:58:00,
2013-05-18 16:00:00,55.6,52.4,30.22,SE,128,4.0,6.0,89,0.00,,---,0.04,158.00,VWS V14.01,2013-05-18 23:00:00,
2013-05-18 16:03:00,55.5,52.3,30.22,SE,132,5.0,6.0,89,0.00,,---,0.04,134.00,VWS V14.01,2013-05-18 23:03:00,
2013-05-18 16:08:00,55.6,52.4,30.22,SE,130,1.0,3.0,89,0.00,,---,0.04,120.00,VWS V14.01,2013-05-18 23:08:00,
2013-05-18 16:10:00,55.5,52.3,30.22,SE,126,2.0,6.0,89,0.00,,---,0.04,130.00,VWS V14.01,2013-05-18 23:10:00,
2013-05-18 16:13:00,55.6,52.4,30.22,East,90,4.0,9.0,89,0.00,,---,0.04,127.00,VWS V14.01,2013-05-18 23:13:00,
2013-05-18 16:18:00,55.5,52.3,30.22,ESE,104,3.0,6.0,89,0.00,,---,0.04,130.00,VWS V14.01,2013-05-18 23:18:00,
2013-05-18 16:20:00,55.5,52.0,30.22,SSE,147,2.0,9.0,88,0.00,,---,0.04,130.00,VWS V14.01,2013-05-18 23:20:00,
2013-05-18 16:23:00,55.5,52.0,30.22,ESE,115,3.0,7.0,88,0.00,,---,0.04,142.00,VWS V14.01,2013-05-18 23:23:00,
2013-05-18 16:28:00,55.6,52.1,30.22,ESE,121,3.0,4.0,88,0.00,,---,0.04,172.00,VWS V14.01,2013-05-18 23:28:00,
2013-05-18 16:30:00,55.6,52.4,30.22,ESE,122,4.0,7.0,89,0.00,,---,0.04,156.00,VWS V14.01,2013-05-18 23:30:00,
2013-05-18 16:33:00,55.8,52.3,30.22,SSE,163,1.0,6.0,88,0.00,,---,0.04,274.00,VWS V14.01,2013-05-18 23:33:00,
2013-05-18 16:38:00,56.1,52.6,30.22,SE,131,0.0,5.0,88,0.00,,---,0.04,209.00,VWS V14.01,2013-05-18 23:38:00,
2013-05-18 16:40:00,56.0,52.5,30.22,ESE,123,5.0,6.0,88,0.00,,---,0.04,206.00,VWS V14.01,2013-05-18 23:40:00,
2013-05-18 16:43:00,56.2,52.4,30.22,SE,138,5.0,5.0,87,0.00,,---,0.04,178.00,VWS V14.01,2013-05-18 23:43:00,
2013-05-18 16:48:00,56.4,52.6,30.22,ESE,117,0.0,4.0,87,0.00,,---,0.04,178.00,VWS V14.01,2013-05-18 23:48:00,
2013-05-18 16:50:00,56.3,52.5,30.22,SE,125,2.0,5.0,87,0.00,,---,0.04,165.00,VWS V14.01,2013-05-18 23:50:00,
2013-05-18 16:53:00,56.5,52.7,30.22,SSE,159,0.0,4.0,87,0.00,,---,0.04,179.00,VWS V14.01,2013-05-18 23:53:00,
2013-05-18 16:58:00,56.7,52.9,30.22,SSE,152,4.0,4.0,87,0.00,,---,0.04,132.00,VWS V14.01,2013-05-18 23:58:00,
2013-05-18 17:00:00,56.6,52.8,30.22,SSE,167,4.0,5.0,87,0.00,,---,0.04,137.00,VWS V14.01,2013-05-19 00:00:00,
2013-05-18 17:03:00,56.8,52.7,30.22,SE,130,3.0,7.0,86,0.00,,---,0.04,142.00,VWS V14.01,2013-05-19 00:03:00,
2013-05-18 17:08:00,56.8,52.7,30.22,ESE,123,2.0,5.0,86,0.00,,---,0.04,98.00,VWS V14.01,2013-05-19 00:08:00,
2013-05-18 17:10:00,56.8,52.7,30.22,East,98,4.0,7.0,86,0.00,,---,0.04,109.00,VWS V14.01,2013-05-19 00:10:00,
2013-05-18 17:13:00,56.9,52.4,30.22,East,101,4.0,7.0,85,0.00,,---,0.04,163.00,VWS V14.01,2013-05-19 00:13:00,
2013-05-18 17:18:00,57.0,52.9,30.22,SE,138,3.0,4.0,86,0.00,,---,0.04,185.00,VWS V14.01,2013-05-19 00:18:00,
2013-05-18 17:20:00,56.9,52.8,30.22,ESE,121,3.0,7.0,86,0.00,,---,0.04,192.00,VWS V14.01,2013-05-19 00:20:00,
2013-05-18 17:23:00,57.1,52.6,30.22,SSE,155,4.0,7.0,85,0.00,,---,0.04,146.00,VWS V14.01,2013-05-19 00:23:00,
2013-05-18 17:28:00,57.2,52.7,30.22,SE,138,6.0,6.0,85,0.00,,---,0.04,174.00,VWS V14.01,2013-05-19 00:28:00,
2013-05-18 17:30:00,57.1,52.6,30.22,SE,142,3.0,7.0,85,0.00,,---,0.04,162.00,VWS V14.01,2013-05-19 00:30:00,
2013-05-18 17:33:00,57.2,52.7,30.23,ESE,102,5.0,6.0,85,0.00,,---,0.04,207.00,VWS V14.01,2013-05-19 00:33:00,
2013-05-18 17:38:00,57.3,52.8,30.22,ESE,123,1.0,5.0,85,0.00,,---,0.04,241.00,VWS V14.01,2013-05-19 00:38:00,
2013-05-18 17:40:00,57.3,52.8,30.23,ESE,105,5.0,6.0,85,0.00,,---,0.04,237.00,VWS V14.01,2013-05-19 00:40:00,
2013-05-18 17:43:00,57.5,53.0,30.22,SE,146,2.0,5.0,85,0.00,,---,0.04,234.00,VWS V14.01,2013-05-19 00:43:00,
2013-05-18 17:48:00,57.6,53.1,30.22,SE,140,1.0,6.0,85,0.00,,---,0.04,185.00,VWS V14.01,2013-05-19 00:48:00,
2013-05-18 17:50:00,57.6,52.8,30.22,ESE,121,3.0,6.0,84,0.00,,---,0.04,211.00,VWS V14.01,2013-05-19 00:50:00,
2013-05-18 17:53:00,57.7,52.6,30.22,ESE,111,3.0,10.0,83,0.00,,---,0.04,213.00,VWS V14.01,2013-05-19 00:53:00,
2013-05-18 17:58:00,57.8,52.7,30.22,ESE,113,7.0,7.0,83,0.00,,---,0.04,179.00,VWS V14.01,2013-05-19 00:58:00,
2013-05-18 18:00:00,57.7,52.6,30.22,SE,132,0.0,10.0,83,0.00,,---,0.04,202.00,VWS V14.01,2013-05-19 01:00:00,
2013-05-18 18:03:00,57.7,52.9,30.22,ESE,123,4.0,7.0,84,0.00,,---,0.04,146.00,VWS V14.01,2013-05-19 01:03:00,
2013-05-18 18:08:00,57.7,52.9,30.22,ESE,111,2.0,3.0,84,0.00,,---,0.04,153.00,VWS V14.01,2013-05-19 01:08:00,
2013-05-18 18:10:00,57.7,52.6,30.22,SSE,165,3.0,7.0,83,0.00,,---,0.04,162.00,VWS V14.01,2013-05-19 01:10:00,
2013-05-18 18:13:00,57.8,52.7,30.22,ESE,113,4.0,4.0,83,0.00,,---,0.04,148.00,VWS V14.01,2013-05-19 01:13:00,
2013-05-18 18:18:00,57.8,53.0,30.22,ESE,123,2.0,3.0,84,0.00,,---,0.04,130.00,VWS V14.01,2013-05-19 01:18:00,
2013-05-18 18:20:00,57.8,52.7,30.22,ESE,123,2.0,5.0,83,0.00,,---,0.04,125.00,VWS V14.01,2013-05-19 01:20:00,
2013-05-18 18:23:00,57.9,52.8,30.22,ESE,113,3.0,6.0,83,0.00,,---,0.04,121.00,VWS V14.01,2013-05-19 01:23:00,
2013-05-18 18:28:00,57.9,52.8,30.23,South,174,0.0,4.0,83,0.00,,---,0.04,130.00,VWS V14.01,2013-05-19 01:28:00,
2013-05-18 18:30:00,57.8,52.7,30.22,ESE,119,2.0,6.0,83,0.00,,---,0.04,127.00,VWS V14.01,2013-05-19 01:30:00,
2013-05-18 18:33:00,57.9,52.8,30.22,SSE,148,2.0,6.0,83,0.00,,---,0.04,118.00,VWS V14.01,2013-05-19 01:33:00,
2013-05-18 18:38:00,58.0,52.9,30.22,SSE,162,3.0,4.0,83,0.00,,---,0.04,91.00,VWS V14.01,2013-05-19 01:38:00,
2013-05-18 18:40:00,57.9,52.8,30.22,SE,142,3.0,6.0,83,0.00,,---,0.04,111.00,VWS V14.01,2013-05-19 01:40:00,
2013-05-18 18:43:00,57.9,52.8,30.22,SE,132,4.0,6.0,83,0.00,,---,0.04,72.00,VWS V14.01,2013-05-19 01:43:00,
2013-05-18 18:48:00,57.9,52.5,30.22,ESE,123,3.0,5.0,82,0.00,,---,0.04,148.00,VWS V14.01,2013-05-19 01:48:00,
2013-05-18 18:50:00,57.9,52.5,30.22,SSE,154,5.0,6.0,82,0.00,,---,0.04,121.00,VWS V14.01,2013-05-19 01:50:00,
2013-05-18 18:53:00,57.9,52.8,30.23,SE,133,2.0,6.0,83,0.00,,---,0.04,105.00,VWS V14.01,2013-05-19 01:53:00,
2013-05-18 18:58:00,57.9,52.8,30.23,ESE,109,3.0,6.0,83,0.00,,---,0.04,65.00,VWS V14.01,2013-05-19 01:58:00,
2013-05-18 19:00:00,57.9,52.8,30.22,ESE,123,3.0,6.0,83,0.00,,---,0.04,72.00,VWS V14.01,2013-05-19 02:00:00,
2013-05-18 19:03:00,57.9,52.8,30.23,SSE,156,2.0,6.0,83,0.00,,---,0.04,47.00,VWS V14.01,2013-05-19 02:03:00,
2013-05-18 19:08:00,57.8,52.7,30.23,SE,128,3.0,3.0,83,0.00,,---,0.04,49.00,VWS V14.01,2013-05-19 02:08:00,
2013-05-18 19:10:00,57.8,52.7,30.23,SSE,160,2.0,6.0,83,0.00,,---,0.04,47.00,VWS V14.01,2013-05-19 02:10:00,
2013-05-18 19:13:00,57.8,52.7,30.23,ESE,121,3.0,6.0,83,0.00,,---,0.04,49.00,VWS V14.01,2013-05-19 02:13:00,
2013-05-18 19:18:00,57.7,52.9,30.23,SSE,151,3.0,5.0,84,0.00,,---,0.04,77.00,VWS V14.01,2013-05-19 02:18:00,
2013-05-18 19:20:00,57.7,52.9,30.23,ESE,111,2.0,6.0,84,0.00,,---,0.04,70.00,VWS V14.01,2013-05-19 02:20:00,
2013-05-18 19:23:00,57.7,52.9,30.23,SE,124,1.0,5.0,84,0.00,,---,0.04,83.00,VWS V14.01,2013-05-19 02:23:00,
2013-05-18 19:28:00,57.8,53.0,30.23,SE,138,0.0,2.0,84,0.00,,---,0.04,88.00,VWS V14.01,2013-05-19 02:28:00,
2013-05-18 19:30:00,57.7,52.9,30.23,ESE,111,1.0,5.0,84,0.00,,---,0.04,91.00,VWS V14.01,2013-05-19 02:30:00,
2013-05-18 19:33:00,57.7,53.2,30.23,South,176,0.0,4.0,85,0.00,,---,0.04,63.00,VWS V14.01,2013-05-19 02:33:00,
2013-05-18 19:38:00,57.7,53.2,30.23,South,170,3.0,4.0,85,0.00,,---,0.04,56.00,VWS V14.01,2013-05-19 02:38:00,
2013-05-18 19:40:00,57.7,53.2,30.23,SSE,150,3.0,5.0,85,0.00,,---,0.04,62.00,VWS V14.01,2013-05-19 02:40:00,
2013-05-18 19:43:00,57.6,53.1,30.24,SSE,159,0.0,4.0,85,0.00,,---,0.04,40.00,VWS V14.01,2013-05-19 02:43:00,
2013-05-18 19:48:00,57.5,53.3,30.24,SSE,160,0.0,4.0,86,0.00,,---,0.04,30.00,VWS V14.01,2013-05-19 02:48:00,
2013-05-18 19:50:00,57.5,53.3,30.24,SSE,159,1.0,4.0,86,0.00,,---,0.04,37.00,VWS V14.01,2013-05-19 02:50:00,
2013-05-18 19:53:00,57.4,53.2,30.24,SSE,160,0.0,4.0,86,0.00,,---,0.04,16.00,VWS V14.01,2013-05-19 02:53:00,
2013-05-18 19:58:00,57.3,52.8,30.24,SSE,160,0.0,1.0,85,0.00,,---,0.04,12.00,VWS V14.01,2013-05-19 02:58:00,
2013-05-18 20:00:00,57.3,52.8,30.24,SSE,160,0.0,4.0,85,0.00,,---,0.04,12.00,VWS V14.01,2013-05-19 03:00:00,
2013-05-18 20:03:00,57.2,52.7,30.24,South,184,3.0,5.0,85,0.00,,---,0.04,11.00,VWS V14.01,2013-05-19 03:03:00,
2013-05-18 20:08:00,57.2,52.4,30.25,South,171,2.0,2.0,84,0.00,,---,0.04,9.00,VWS V14.01,2013-05-19 03:08:00,
2013-05-18 20:10:00,57.2,52.4,30.25,SSE,168,0.0,6.0,84,0.00,,---,0.04,9.00,VWS V14.01,2013-05-19 03:10:00,
2013-05-18 20:13:00,57.2,52.4,30.25,South,179,1.0,7.0,84,0.00,,---,0.04,9.00,VWS V14.01,2013-05-19 03:13:00,
2013-05-18 20:18:00,57.3,52.5,30.25,South,186,2.0,7.0,84,0.00,,---,0.04,9.00,VWS V14.01,2013-05-19 03:18:00,
2013-05-18 20:20:00,57.3,52.2,30.25,South,182,3.0,7.0,83,0.00,,---,0.04,9.00,VWS V14.01,2013-05-19 03:20:00,
2013-05-18 20:23:00,57.3,52.2,30.25,SSE,168,1.0,7.0,83,0.00,,---,0.04,5.00,VWS V14.01,2013-05-19 03:23:00,
2013-05-18 20:28:00,57.2,52.4,30.25,South,189,2.0,3.0,84,0.00,,---,0.04,5.00,VWS V14.01,2013-05-19 03:28:00,
2013-05-18 20:30:00,57.3,52.5,30.25,SSE,153,3.0,7.0,84,0.00,,---,0.04,5.00,VWS V14.01,2013-05-19 03:30:00,
2013-05-18 20:33:00,57.1,52.3,30.25,South,189,1.0,4.0,84,0.00,,---,0.04,0.00,VWS V14.01,2013-05-19 03:33:00,
2013-05-18 20:38:00,57.0,52.2,30.25,South,189,0.0,3.0,84,0.00,,---,0.04,0.00,VWS V14.01,2013-05-19 03:38:00,
2013-05-18 20:40:00,57.0,52.2,30.25,South,189,0.0,4.0,84,0.00,,---,0.04,0.00,VWS V14.01,2013-05-19 03:40:00,
2013-05-18 20:43:00,56.9,52.4,30.25,South,189,0.0,3.0,85,0.00,,---,0.04,0.00,VWS V14.01,2013-05-19 03:43:00,
2013-05-18 20:48:00,56.8,52.3,30.25,South,189,0.0,4.0,85,0.00,,---,0.04,0.00,VWS V14.01,2013-05-19 03:48:00,
2013-05-18 20:50:00,56.8,52.3,30.25,South,189,0.0,3.0,85,0.00,,---,0.04,0.00,VWS V14.01,2013-05-19 03:50:00,
2013-05-18 20:53:00,56.6,52.2,30.25,South,189,0.0,4.0,85,0.00,,---,0.04,0.00,VWS V14.01,2013-05-19 03:53:00,
2013-05-18 20:58:00,56.5,52.4,30.25,South,189,0.0,2.0,86,0.00,,---,0.04,0.00,VWS V14.01,2013-05-19 03:58:00,
2013-05-18 21:00:00,56.5,52.0,30.25,South,189,0.0,4.0,85,0.00,,---,0.04,0.00,VWS V14.01,2013-05-19 04:00:00,
2013-05-18 21:01:00,56.4,52.3,30.25,South,189,1.0,2.0,86,0.00,,---,0.04,0.00,VWS V14.01,2013-05-19 04:01:00,
2013-05-18 21:06:00,56.2,52.1,30.26,South,189,0.0,2.0,86,0.00,,---,0.04,0.00,VWS V14.01,2013-05-19 04:06:00,
2013-05-18 21:10:00,56.2,52.1,30.26,South,189,0.0,2.0,86,0.00,,---,0.04,0.00,VWS V14.01,2013-05-19 04:10:00,
2013-05-18 21:11:00,56.1,52.0,30.26,South,189,0.0,2.0,86,0.00,,---,0.04,0.00,VWS V14.01,2013-05-19 04:11:00,
2013-05-18 21:16:00,55.9,52.1,30.27,South,189,3.0,5.0,87,0.00,,---,0.04,0.00,VWS V14.01,2013-05-19 04:16:00,
2013-05-18 21:20:00,55.8,52.0,30.27,South,189,3.0,5.0,87,0.00,,---,0.04,0.00,VWS V14.01,2013-05-19 04:20:00,
2013-05-18 21:21:00,55.8,52.0,30.27,South,175,3.0,5.0,87,0.00,,---,0.04,0.00,VWS V14.01,2013-05-19 04:21:00,
2013-05-18 21:26:00,55.8,52.0,30.27,South,175,0.0,5.0,87,0.00,,---,0.04,0.00,VWS V14.01,2013-05-19 04:26:00,
2013-05-18 21:30:00,55.8,52.0,30.27,South,175,0.0,5.0,87,0.00,,---,0.04,0.00,VWS V14.01,2013-05-19 04:30:00,
2013-05-18 21:31:00,55.7,51.9,30.27,South,175,0.0,3.0,87,0.00,,---,0.04,0.00,VWS V14.01,2013-05-19 04:31:00,
2013-05-18 21:36:00,55.7,51.9,30.27,South,183,2.0,5.0,87,0.00,,---,0.04,0.00,VWS V14.01,2013-05-19 04:36:00,
2013-05-18 21:40:00,55.7,51.9,30.27,South,179,2.0,5.0,87,0.00,,---,0.04,0.00,VWS V14.01,2013-05-19 04:40:00,
2013-05-18 21:41:00,55.6,51.8,30.28,South,179,0.0,3.0,87,0.00,,---,0.04,0.00,VWS V14.01,2013-05-19 04:41:00,
2013-05-18 21:50:00,55.4,51.6,30.28,South,185,3.0,3.0,87,0.00,,---,0.04,0.00,VWS V14.01,2013-05-19 04:50:00,
2013-05-18 21:55:00,55.3,51.8,30.28,South,188,0.0,4.0,88,0.00,,---,0.04,0.00,VWS V14.01,2013-05-19 04:55:00,
2013-05-18 22:00:00,55.1,51.6,30.28,South,187,0.0,5.0,88,0.00,,---,0.04,0.00,VWS V14.01,2013-05-19 05:00:00,
2013-05-18 22:05:00,55.0,51.5,30.28,South,187,1.0,5.0,88,0.00,,---,0.04,0.00,VWS V14.01,2013-05-19 05:05:00,
2013-05-18 22:10:00,54.9,51.7,30.29,South,182,1.0,6.0,89,0.00,,---,0.04,0.00,VWS V14.01,2013-05-19 05:10:00,
2013-05-18 22:15:00,54.7,51.5,30.28,SSW,198,4.0,6.0,89,0.00,,---,0.04,0.00,VWS V14.01,2013-05-19 05:15:00,
2013-05-18 22:19:00,54.6,51.4,30.28,SSW,199,0.0,4.0,89,0.00,,---,0.04,0.00,VWS V14.01,2013-05-19 05:19:00,
2013-05-18 22:20:00,54.7,51.5,30.28,SSW,199,0.0,6.0,89,0.00,,---,0.04,0.00,VWS V14.01,2013-05-19 05:20:00,
2013-05-18 22:24:00,54.5,51.3,30.28,South,173,0.0,4.0,89,0.00,,---,0.04,0.00,VWS V14.01,2013-05-19 05:24:00,
2013-05-18 22:29:00,54.4,51.5,30.28,SSW,195,5.0,5.0,90,0.00,,---,0.04,0.00,VWS V14.01,2013-05-19 05:29:00,
2013-05-18 22:30:00,54.4,51.5,30.28,South,187,0.0,4.0,90,0.00,,---,0.04,0.00,VWS V14.01,2013-05-19 05:30:00,
2013-05-18 22:34:00,54.3,51.4,30.28,South,185,3.0,6.0,90,0.00,,---,0.04,0.00,VWS V14.01,2013-05-19 05:34:00,
2013-05-18 22:39:00,54.2,51.3,30.28,SSW,208,1.0,4.0,90,0.00,,---,0.04,0.00,VWS V14.01,2013-05-19 05:39:00,
2013-05-18 22:40:00,54.2,51.3,30.28,South,178,2.0,6.0,90,0.00,,---,0.04,0.00,VWS V14.01,2013-05-19 05:40:00,
2013-05-18 22:44:00,54.1,51.5,30.29,South,175,4.0,5.0,91,0.00,,---,0.04,0.00,VWS V14.01,2013-05-19 05:44:00,
2013-05-18 22:49:00,53.9,51.3,30.28,South,180,2.0,4.0,91,0.00,,---,0.04,0.00,VWS V14.01,2013-05-19 05:49:00,
2013-05-18 22:50:00,54.0,51.4,30.28,South,174,2.0,5.0,91,0.00,,---,0.04,0.00,VWS V14.01,2013-05-19 05:50:00,
2013-05-18 22:54:00,53.8,51.2,30.29,South,180,0.0,4.0,91,0.00,,---,0.04,0.00,VWS V14.01,2013-05-19 05:54:00,
2013-05-18 22:59:00,53.6,51.3,30.29,South,180,1.0,4.0,92,0.00,,---,0.04,0.00,VWS V14.01,2013-05-19 05:59:00,
2013-05-18 23:00:00,53.7,51.1,30.29,South,180,0.0,4.0,91,0.00,,---,0.04,0.00,VWS V14.01,2013-05-19 06:00:00,
2013-05-18 23:04:00,53.5,51.2,30.29,SSW,195,2.0,4.0,92,0.00,,---,0.04,0.00,VWS V14.01,2013-05-19 06:04:00,
2013-05-18 23:09:00,53.4,51.1,30.29,SSW,195,0.0,2.0,92,0.00,,---,0.04,0.00,VWS V14.01,2013-05-19 06:09:00,
2013-05-18 23:10:00,53.5,51.2,30.29,SSW,195,0.0,4.0,92,0.00,,---,0.04,0.00,VWS V14.01,2013-05-19 06:10:00,
2013-05-18 23:14:00,53.4,51.1,30.29,SSW,204,3.0,4.0,92,0.00,,---,0.04,0.00,VWS V14.01,2013-05-19 06:14:00,
2013-05-18 23:19:00,53.3,51.3,30.29,South,180,2.0,4.0,93,0.00,,---,0.04,0.00,VWS V14.01,2013-05-19 06:19:00,
2013-05-18 23:20:00,53.3,51.0,30.29,South,180,4.0,4.0,92,0.00,,---,0.04,0.00,VWS V14.01,2013-05-19 06:20:00,
2013-05-18 23:24:00,53.3,51.3,30.29,South,181,0.0,4.0,93,0.00,,---,0.04,0.00,VWS V14.01,2013-05-19 06:24:00,
2013-05-18 23:29:00,53.2,51.2,30.29,South,181,0.0,2.0,93,0.00,,---,0.04,0.00,VWS V14.01,2013-05-19 06:29:00,
2013-05-18 23:30:00,53.3,51.3,30.29,South,181,0.0,4.0,93,0.00,,---,0.04,0.00,VWS V14.01,2013-05-19 06:30:00,
2013-05-18 23:34:00,53.2,51.2,30.29,South,181,0.0,3.0,93,0.00,,---,0.04,0.00,VWS V14.01,2013-05-19 06:34:00,
2013-05-18 23:39:00,53.2,51.2,30.30,SSW,212,0.0,2.0,93,0.00,,---,0.04,0.00,VWS V14.01,2013-05-19 06:39:00,
2013-05-18 23:40:00,53.2,51.2,30.29,SSW,212,0.0,4.0,93,0.00,,---,0.04,0.00,VWS V14.01,2013-05-19 06:40:00,
2013-05-18 23:44:00,53.1,51.1,30.30,SSW,195,0.0,3.0,93,0.00,,---,0.04,0.00,VWS V14.01,2013-05-19 06:44:00,
2013-05-18 23:49:00,53.1,51.1,30.30,SSW,208,0.0,4.0,93,0.00,,---,0.04,0.00,VWS V14.01,2013-05-19 06:49:00,
2013-05-18 23:50:00,53.1,51.1,30.30,SSW,195,3.0,3.0,93,0.00,,---,0.04,0.00,VWS V14.01,2013-05-19 06:50:00,
2013-05-18 23:54:00,53.1,51.4,30.30,SSW,207,2.0,4.0,94,0.00,,---,0.04,0.00,VWS V14.01,2013-05-19 06:54:00,
2013-05-18 23:59:00,53.1,51.4,30.30,SSW,207,0.0,4.0,94,0.00,,---,0.00,0.00,VWS V14.01,2013-05-19 06:59:00,